Regional Weather Roundup
Issued by NWS

Home | Current Version | Previous Version | Text Only | Print | Product List | Glossary Off
Versions: 1 2 3 4 5 6 7 8 9 10 11 12 13 14 15 16 17 18 19 20 21 22 23 24 25 26 27 28 29 30 31 32 33 34 35 36 37 38 39 40 41 42 43 44 45 46 47 48 49 50

926
ASUS43 KMKX 281321
RWRWI

WISCONSIN REGIONAL WEATHER ROUNDUP
NATIONAL WEATHER SERVICE MILWAUKEE/SULLIVAN WI
800 AM CDT THU JUL 28 2016

NOTE: "FAIR" INDICATES FEW OR NO CLOUDS BELOW 12,000 FEET WITH NO
SIGNIFICANT WEATHER AND/OR OBSTRUCTIONS TO VISIBILITY.

WIZ001-002-006>008-014>016-023>028-281400-
NORTHWEST WISCONSIN

CITY           SKY/WX    TMP DP  RH WIND       PRES   REMARKS
SUPERIOR ARPT  SUNNY     64  57  79 E7        30.07R
ASHLAND        SUNNY     65  59  81 NE12      30.06S
HAYWARD        SUNNY     64  59  83 NE8       30.05R
SIREN          CLOUDY    61  59  94 NE5       30.05R
CUMBERLAND     CLOUDY    63  61  94 NE9       30.03R
RICE LAKE      CLOUDY    65  61  89 N10       30.03S
CHETEK         CLOUDY    65  63  91 NE5       30.01S
LADYSMITH      CLOUDY    65  63  91 NE7       30.04R
EAU CLAIRE     CLOUDY    66  65  96 NE7       29.98R
MENOMONIE      CLOUDY    66  66  99 N3        29.99S
NEW RICHMOND   CLOUDY    65  64  94 NE7       30.02S
OSCEOLA        CLOUDY    65  65 100 N5        30.05R
$$

WIZ003>005-009-010-017-018-281400-
NORTH CENTRAL WISCONSIN

CITY           SKY/WX    TMP DP  RH WIND       PRES   REMARKS
MANITOWISH WTR SUNNY     62  58  88 NE7       30.06S
ARBOR VITAE    MOSUNNY   63  57  82 NE7       30.05S
WOODRUFF       MOSUNNY   63  57  82 NE7       30.05S
RHINELANDER    CLOUDY    62  58  86 NE8       30.05S
EAGLE RIVER    SUNNY     62  56  81 NE9       30.05S
LAND O LAKES   SUNNY     61  56  82 NE6       30.07R
PHILLIPS       MOSUNNY   63  60  90 NE10      30.03S
TOMAHAWK       CLOUDY    61  58  92 NE3       30.04S
MEDFORD        CLOUDY    60  60 100 NE9       30.01S
MERRILL        DRIZZLE   60  60 100 NE8       30.03S
$$

WIZ029-030-035-036-043>047-281400-
CENTRAL WISCONSIN

CITY           SKY/WX    TMP DP  RH WIND       PRES   REMARKS
WAUSAU         LGT RAIN  60  59  96 E7        30.00S FOG
MOSINEE        HVY RAIN  59  59 100 NE9       30.01S
MARSHFIELD     LGT RAIN  62  59  90 E10       29.99R
STEVENS POINT  LGT RAIN  59  59  99 E9        30.00S
WAUPACA        CLOUDY    65  65  98 NE5       30.00R
WAUTOMA        CLOUDY    65  62  90 NE12G18   29.98R
WISC RAPIDS    CLOUDY    64  61  90 E10       29.99R
CAMP DOUGLAS   LGT RAIN  68  66  94 N3        29.94R
$$

WIZ011>013-019>022-031-037>040-048>050-281400-
NORTHEAST WISCONSIN

CITY           SKY/WX    TMP DP  RH WIND       PRES   REMARKS
ANTIGO         CLOUDY    58  58  99 NE9       30.03F
SHAWANO        CLOUDY    63  60  91 N13       30.02S
OCONTO         CLOUDY   N/A N/A N/A NE3       30.01S
STURGEON BAY   CLOUDY    62  61  96 NE8       30.02R
GREEN BAY      CLOUDY    64  63  96 NE13      29.99S
MANITOWOC      CLOUDY    66  60  81 NE8       29.99R
APPLETON       CLOUDY    64  61  88 NE12G17   29.98R
CLINTONVILLE   CLOUDY    61  59  94 NE10G16   30.00S
OSHKOSH        CLOUDY    67  61  81 NE10      29.98R
$$

WIZ032>034-041-042-053>061-281400-
SOUTHWEST WISCONSIN

CITY           SKY/WX    TMP DP  RH WIND       PRES   REMARKS
LA CROSSE      CLOUDY    69  65  86 N9        29.92S
SPARTA         CLOUDY    68  67  98 NE5       29.94R
VIROQUA        CLOUDY    68  68 100 CALM      29.93S VSB 1/4
BOSCOBEL       CLOUDY    70  69  97 NE8       29.91S FOG
PRAIRIE DU CHI CLOUDY    71  68  90 NW5       29.90S
PLATTEVILLE    PTSUNNY   72  71  95 CALM      29.92S
$$

WIZ056-057-062-063-064-067-068-281400-
SOUTH CENTRAL WISCONSIN

CITY           SKY/WX    TMP DP  RH WIND       PRES   REMARKS
REEDSBURG      CLOUDY    69  67  95 E6        29.93R
BARABOO/DELLS  CLOUDY    68  65  89 E10       29.94R
LONE ROCK      CLOUDY    70  68  93 E8        29.92S FOG
MINERAL POINT  MOSUNNY   73  70  88 CALM      29.92S
MADISON        CLOUDY    71  66  84 E8        29.92S
MIDDLETON      CLOUDY    72  70  94 E5        29.93S
WATERTOWN      CLOUDY    68  68 100 E7        29.93S
MONROE         SUNNY     68  68 100 E5        29.93R FOG
JANESVILLE     CLOUDY    73  72  94 E9        29.92R FOG
$$

WIZ051-052-058>065-066-070>072-281400-
SOUTHEAST WISCONSIN

CITY           SKY/WX    TMP DP  RH WIND       PRES   REMARKS
MILWAUKEE      FOG       71  69  93 N6        29.94R VSB 1/4
WAUKESHA       PTSUNNY   68  64  88 NE12      29.95S
MILWAUKEE/TIMM CLOUDY    70  66  88 NE8       29.95S FOG
RACINE         CLOUDY    71  69  93 NE3       29.95R FOG
BURLINGTON     SUNNY     71  66  83 E6        29.94R
KENOSHA        PTSUNNY   72  68  87 E8        29.94R
FOND DU LAC    LGT RAIN  68  62  81 NE10      29.97R
SHEBOYGAN      CLOUDY    66  61  84 NE17G26   29.97R
WEST BEND      CLOUDY    66  64  94 NE10      29.95S
JUNEAU         CLOUDY    67  65  93 NE9       29.96S
$$

LSZ147-162-281400-
LAKE SUPERIOR

STATION/POSITION TIME  TEMP    WIND        PRES    WAVE
                       AIR SEA DIR/SP/G            HT/PER
                 (UTC) (F)     (DEG/KT/KT) (MB)    (FT/S)
W MID LAKE BUOY  1250   62 60   50/ 14/ 16 1017.7S   1/ 2
DEVILS ISLAND    1300   63      50/ 16/ 17 1018.0F
PORT WING        1140   62      40/  7/  8 1017.9S
SAXON HARBOR     1200   65      80/  8/ 10 1017.3
$$

LMZ867-665-643>646-281400-
LAKE MICHIGAN

STATION/POSITION TIME  TEMP    WIND        PRES    WAVE
                       AIR SEA DIR/SP/G            HT/PER
                 (UTC) (F)     (DEG/KT/KT) (MB)    (FT/S)
CHAMBERS ISLAND  1200   65      20/ 10/ 15 1016.3R
N MID LAKE BUOY  1250   65 69   50/ 10/ 12 1015.6R   2/ 4
NORTHPORT PIER   1200   63      50/  7/  9 1016.3S
SISTER BAY       1221   60        CALM       N/A
ALGOMA LAKESHORE 1213           60/ 16/ 20   N/A
KEWAUNEE LAKESHO 1200   62      30/  6/  9 1015.1R
SHEBOYGAN LAKESH 1300   59     350/ 14/ 15 1014.7R
PORT WASHINGTON  1200   71     360/  6/ 10 1014.6S
ATWATER BUOY     1300   63 63  360/ 10/ 14 1015.2R
MILWAUKEE LAKESH 1210   67     360/  6/  8   N/A
S MID LAKE BUOY  1250   74 74   90/  6/  8 1012.6R   1
KENOSHA   LAKESH 1300   68      10/  7/  7 1013.5R
$$

TC  - TEMPERATURE IN CELSIUS
VSB - VISIBILITY IN STATUTE MILES
WCI - WIND CHILL INDEX
HX  - HEAT INDEX





USA.gov is the U.S. government's official web portal to all federal, state and local government web resources and services.